sat.trackr.live / text

‹ back to catalog

STARLINK-30533

NORAD 58037 · 2023-156K

PAYLOAD ACTIVE UNKNOWN

§ Identity

Operator
Country
US
Launch date
2023-10-09
Launch site
AFWTR
Launch vehicle
Mass (kg)
RCS (m²)

Purposes: comms

External: N2YO · Heavens-Above · Gunter

§ Orbital elements

Epoch: 2026-09-20T12:54:04.617216Z

Period
93.85 min
Inclination
53.1612°
Eccentricity
0.0000996
Mean motion
15.34377980 rev/d
Perigee alt
462.1 km
Apogee alt
463.5 km
Semi-major
6,840.9 km
B*
8.0837e-4
RAAN
339.6625°
Arg perigee
87.9355°
Mean anomaly
272.1762°
Rev number
16,491

§ Raw data

STARLINK-305331 58037U 23156K   26263.53755344  .00027015  00000+0  80837-3 0  99982 58037  53.1612 339.6625 0000996  87.9355 272.1762 15.34377980164913

JSON: /api/v1/satellites/58037 · /tle

For live sub-satellite position, see the globe view (requires WebGL).

§ Visibility from observer

Set your observer location to see the next 7 days of passes ≥ 10°. The values pass through the URL so the page stays shareable.

No JS? Fill the form by hand. The geolocation button needs JavaScript.